Location: Dehesa de la Cepeda
(40.6574°N, 4.3013°W)
Time: 17:05:07
(UTC+00:00)

Vanguard 1 Rocket - All Passes

Search period start: 28 July 2021 00:00
Search period end: 07 August 2021 00:00
Orbit: 650 x 4226 km, 34.3° (Epoch: 27 July)

Date Brightness Start Highest point End Pass type
(mag) Time Alt. Az. Time Alt. Az. Time Alt. Az.
28 Jul - 09:09:04 10° SSW 09:25:42 30° SSE 09:36:06 10° E daylight
28 Jul - 11:37:54 10° WSW 11:53:33 51° SSE 12:01:40 10° E daylight
28 Jul - 14:09:07 10° W 14:19:39 55° S 14:25:24 10° ESE daylight
28 Jul - 16:38:54 10° W 16:43:54 23° SSW 16:47:39 10° SSE daylight
29 Jul - 07:57:17 10° S 08:12:33 23° SE 08:23:24 10° ESE daylight
29 Jul - 10:23:24 10° SW 10:41:12 45° SSE 10:50:54 10° E daylight
29 Jul - 12:54:42 10° WSW 13:08:15 59° S 13:15:11 10° ESE daylight
29 Jul - 15:25:32 10° W 15:33:22 38° SSW 15:38:14 10° SE daylight
30 Jul - 06:48:24 10° SSE 06:59:11 15° SE 07:08:06 10° ESE daylight
30 Jul - 09:09:29 10° SSW 09:28:21 37° SSE 09:39:37 10° E daylight
30 Jul - 11:39:46 10° WSW 11:56:21 57° S 12:04:45 10° E daylight
30 Jul - 14:11:38 10° W 14:22:28 53° SSW 14:28:21 10° ESE daylight
30 Jul - 16:42:11 10° WSW 16:46:27 18° SW 16:49:47 10° S daylight
31 Jul - 07:56:45 10° SSW 08:15:05 29° SSE 08:27:28 10° E daylight
31 Jul - 10:24:49 10° SW 10:43:55 52° SSE 10:54:03 10° E daylight
31 Jul - 12:57:01 10° W 13:11:04 61° S 13:18:12 10° ESE daylight
31 Jul - 15:28:18 10° W 15:36:02 33° SSW 15:40:54 10° SE daylight
01 Aug - 06:45:57 10° S 07:01:36 21° SE 07:13:44 10° E daylight
01 Aug - 09:10:20 10° SW 09:30:57 45° SSE 09:42:54 10° E daylight
01 Aug - 11:41:49 10° WSW 11:59:07 62° S 12:07:49 10° E daylight
01 Aug - 14:14:11 10° W 14:25:14 49° SSW 14:31:14 10° SE daylight
01 Aug - 16:45:57 10° WSW 16:48:54 13° SW 16:51:22 10° SSW daylight
02 Aug - 05:39:32 10° SSE 05:48:05 13° SE 05:55:49 10° ESE daylight
02 Aug - 07:56:54 10° SSW 08:17:32 36° SSE 08:31:04 10° E daylight
02 Aug - 10:26:28 10° WSW 10:46:35 58° SSE 10:57:07 10° E daylight
02 Aug - 12:59:23 10° W 13:13:51 61° S 13:21:11 10° ESE daylight
02 Aug - 15:31:10 10° W 15:38:35 27° SW 15:43:24 10° SSE daylight
03 Aug - 06:45:01 10° S 07:03:55 28° SE 07:18:03 10° E daylight
03 Aug - 09:11:32 10° SW 09:33:29 52° SSE 09:46:02 10° E daylight
03 Aug - 11:43:58 10° WSW 12:01:52 65° S 12:10:48 10° E daylight
03 Aug - 14:16:44 10° W 14:27:53 44° SSW 14:34:01 10° SE daylight
04 Aug - 05:35:43 10° S 05:50:18 19° SE 06:02:46 10° E daylight
04 Aug - 07:57:32 10° SW 08:19:56 43° SSE 08:34:21 10° E daylight
04 Aug - 10:28:18 10° WSW 10:49:15 64° S 11:00:08 10° E daylight
04 Aug - 13:01:45 10° W 13:16:35 58° SSW 13:24:06 10° ESE daylight
04 Aug - 15:34:11 10° W 15:41:00 22° SW 15:45:38 10° S daylight
05 Aug - 06:44:56 10° SSW 07:06:07 34° SE 07:21:46 10° E daylight
05 Aug - 09:13:00 10° SW 09:36:01 58° SSE 09:49:04 10° E daylight
05 Aug - 11:46:10 10° W 12:04:35 66° S 12:13:46 10° ESE daylight
05 Aug - 14:19:20 10° W 14:30:26 39° SSW 14:36:40 10° SE daylight
06 Aug - 05:34:17 10° S 05:52:21 25° SE 06:07:35 10° E daylight
06 Aug - 07:58:34 10° SW 08:22:16 50° SSE 08:37:28 10° E daylight
06 Aug - 10:30:18 10° WSW 10:51:54 67° S 11:03:06 10° E daylight
06 Aug - 13:04:09 10° W 13:19:13 55° SSW 13:26:57 10° SE daylight
06 Aug - 15:37:30 10° W 15:43:17 17° SW 15:47:29 10° S daylight
